TimeEST,TemperatureF,Dew PointF,Humidity,Sea Level PressureIn,VisibilityMPH,Wind Direction,Wind SpeedMPH,Gust SpeedMPH,PrecipitationIn,Events,Conditions,WindDirDegrees,DateUTC
12:53 AM,36.0,30.0,79,30.17,10.0,ENE,4.6,-,N/A,,Overcast,60,2012-12-09 05:53:00
1:13 AM,35.6,28.4,75,30.15,10.0,ENE,4.6,-,N/A,,Scattered Clouds,60,2012-12-09 06:13:00
1:53 AM,35.1,28.0,76,30.19,10.0,ENE,3.5,-,N/A,,Clear,60,2012-12-09 06:53:00
2:53 AM,35.1,28.0,76,30.20,10.0,ENE,4.6,-,N/A,,Mostly Cloudy,70,2012-12-09 07:53:00
3:53 AM,34.0,28.0,79,30.20,10.0,East,5.8,-,N/A,,Scattered Clouds,80,2012-12-09 08:53:00
4:43 AM,33.8,26.6,75,30.16,10.0,ENE,5.8,-,N/A,,Mostly Cloudy,70,2012-12-09 09:43:00
4:51 AM,33.8,26.6,75,30.16,10.0,East,4.6,-,N/A,,Scattered Clouds,80,2012-12-09 09:51:00
4:53 AM,34.0,27.0,75,30.19,10.0,East,4.6,-,N/A,,Scattered Clouds,80,2012-12-09 09:53:00
5:53 AM,30.9,27.0,85,30.22,10.0,Calm,Calm,-,N/A,,Partly Cloudy,0,2012-12-09 10:53:00
6:53 AM,32.0,27.0,82,30.20,10.0,Calm,Calm,-,N/A,,Overcast,0,2012-12-09 11:53:00
7:53 AM,32.0,27.0,82,30.19,10.0,ENE,4.6,-,N/A,,Overcast,60,2012-12-09 12:53:00
8:53 AM,33.1,28.0,82,30.17,10.0,ENE,5.8,-,N/A,,Overcast,70,2012-12-09 13:53:00
9:53 AM,35.1,28.9,78,30.17,10.0,ENE,4.6,-,N/A,,Clear,60,2012-12-09 14:53:00
10:53 AM,37.9,30.0,73,30.13,10.0,East,9.2,-,N/A,,Partly Cloudy,90,2012-12-09 15:53:00
11:53 AM,42.1,32.0,67,30.07,10.0,ESE,6.9,-,N/A,,Mostly Cloudy,110,2012-12-09 16:53:00
12:37 PM,42.8,33.8,70,30.02,10.0,SE,10.4,-,N/A,,Overcast,130,2012-12-09 17:37:00
12:53 PM,44.1,33.1,65,30.03,10.0,SE,8.1,-,N/A,,Overcast,140,2012-12-09 17:53:00
1:53 PM,43.0,34.0,71,30.00,10.0,ESE,5.8,-,N/A,,Overcast,120,2012-12-09 18:53:00
2:53 PM,44.1,36.0,73,29.96,10.0,SE,9.2,-,N/A,,Overcast,140,2012-12-09 19:53:00
3:53 PM,44.1,37.9,79,29.93,10.0,SE,8.1,-,0.00,Rain,Light Rain,140,2012-12-09 20:53:00
4:53 PM,44.1,39.0,82,29.88,7.0,SE,8.1,-,0.03,Rain,Light Rain,140,2012-12-09 21:53:00
5:53 PM,45.0,39.9,82,29.85,10.0,SSE,12.7,-,0.02,,Overcast,160,2012-12-09 22:53:00
6:43 PM,46.4,42.8,87,29.82,4.0,South,10.4,-,0.03,Rain,Rain,170,2012-12-09 23:43:00
6:53 PM,46.0,42.1,86,29.84,7.0,South,11.5,19.6,0.04,Rain,Light Rain,170,2012-12-09 23:53:00
7:03 PM,46.4,42.8,87,29.82,9.0,South,10.4,-,0.00,Rain,Light Rain,170,2012-12-10 00:03:00
7:53 PM,48.0,44.1,86,29.82,6.0,South,10.4,-,0.04,Rain,Light Rain,180,2012-12-10 00:53:00
8:53 PM,48.9,46.0,90,29.79,7.0,South,10.4,17.3,0.01,,Overcast,180,2012-12-10 01:53:00
9:53 PM,48.9,46.0,90,29.77,5.0,South,8.1,-,0.00,Rain,Light Rain,170,2012-12-10 02:53:00
10:53 PM,51.1,48.0,89,29.72,6.0,South,11.5,-,0.04,Rain,Light Rain,170,2012-12-10 03:53:00
11:02 PM,51.8,48.2,88,29.71,6.0,South,10.4,-,0.01,Rain,Light Rain,180,2012-12-10 04:02:00
11:53 PM,52.0,48.9,89,29.70,7.0,South,8.1,-,0.06,Rain,Light Rain,170,2012-12-10 04:53:00